TUA739 UTAA-UWKD

Flight info

Callsign TUA739
Flight time N/A
Altitude 34000
Route N0460F340 MAMED A87 TIROM L992 BODSI M158 URL M161 MOF T793 TONSI
Aircraft B738/M-VGDW/C

Departure

Time 2026-05-06 13:54
Airport Ashgabat International Airport (UTAA)

Arrival

Time N/A
Airport Kazan International Airport (UWKD)
Time Latitude Longitude Altitude Speed Heading
2026-05-06 13:27 37.98368 58.37004 708 ft 0 kts 208°
2026-05-06 13:44 37.98369 58.37004 710 ft 1 kts 208°
2026-05-06 13:44 37.98382 58.37014 709 ft 2 kts 208°
2026-05-06 13:45 37.98395 58.37022 707 ft 2 kts 208°
2026-05-06 13:45 37.98421 58.37041 707 ft 2 kts 208°
2026-05-06 13:45 37.98431 58.37048 707 ft 0 kts 208°
2026-05-06 13:46 37.98443 58.37054 707 ft 2 kts 187°
2026-05-06 13:46 37.98458 58.37053 707 ft 2 kts 165°
2026-05-06 13:46 37.98472 58.37046 707 ft 2 kts 141°
2026-05-06 13:46 37.98480 58.37035 707 ft 0 kts 123°
2026-05-06 13:47 37.98483 58.37027 707 ft 0 kts 120°
2026-05-06 13:47 37.98484 58.37027 707 ft 0 kts 120°
2026-05-06 13:49 37.98475 58.37045 707 ft 6 kts 120°
2026-05-06 13:49 37.98442 58.37118 707 ft 10 kts 118°
2026-05-06 13:49 37.98408 58.37195 707 ft 9 kts 119°
2026-05-06 13:50 37.98377 58.37264 707 ft 8 kts 117°
2026-05-06 13:50 37.98369 58.37332 707 ft 7 kts 76°
2026-05-06 13:50 37.98388 58.37414 707 ft 10 kts 73°
2026-05-06 13:50 37.98400 58.37499 707 ft 9 kts 97°
2026-05-06 13:51 37.98374 58.37574 707 ft 12 kts 118°
2026-05-06 13:51 37.98323 58.37689 707 ft 15 kts 119°
2026-05-06 13:51 37.98272 58.37806 708 ft 14 kts 118°
2026-05-06 13:51 37.98236 58.37906 708 ft 10 kts 96°
2026-05-06 13:52 37.98254 58.37987 707 ft 9 kts 52°
2026-05-06 13:52 37.98303 58.38034 707 ft 8 kts 31°
2026-05-06 13:52 37.98349 58.38062 707 ft 6 kts
2026-05-06 13:52 37.98376 58.38027 707 ft 5 kts 296°
2026-05-06 13:53 37.98392 58.37987 707 ft 4 kts 297°
2026-05-06 13:53 37.98404 58.37958 706 ft 3 kts 298°
2026-05-06 13:53 37.98415 58.37933 706 ft 6 kts 298°
2026-05-06 13:53 37.98524 58.37687 706 ft 68 kts 300°
2026-05-06 13:54 37.98880 58.36889 704 ft 136 kts 299°
2026-05-06 13:54 37.99435 58.35636 772 ft 184 kts 299°
2026-05-06 13:54 38.00021 58.34306 1701 ft 170 kts 299°
2026-05-06 13:54 38.00621 58.32977 2196 ft 183 kts 301°
2026-05-06 13:55 38.01281 58.31525 2640 ft 199 kts 301°
2026-05-06 13:55 38.01996 58.29925 3106 ft 216 kts 301°
2026-05-06 13:55 38.02746 58.28231 3616 ft 230 kts 300°
2026-05-06 13:55 38.03560 58.26423 4132 ft 244 kts 301°
2026-05-06 13:56 38.04494 58.24585 4755 ft 254 kts 305°
2026-05-06 13:56 38.05577 58.22734 5314 ft 268 kts 307°
2026-05-06 13:56 38.06774 58.20874 5965 ft 277 kts 309°
2026-05-06 13:56 38.08060 58.19051 6732 ft 281 kts 313°
2026-05-06 13:57 38.09534 58.17403 7548 ft 284 kts 319°
2026-05-06 13:57 38.11115 58.15908 8317 ft 287 kts 321°
2026-05-06 13:57 38.12743 58.14405 9101 ft 290 kts 320°
2026-05-06 13:57 38.14376 58.12859 9849 ft 294 kts 319°
2026-05-06 13:58 38.15994 58.11284 10489 ft 301 kts 318°
2026-05-06 13:58 38.17699 58.09602 10916 ft 316 kts 318°
2026-05-06 13:58 38.19484 58.07838 11359 ft 332 kts 317°
2026-05-06 13:58 38.21355 58.05994 11773 ft 348 kts 318°
2026-05-06 13:59 38.23302 58.04078 12161 ft 364 kts 318°
2026-05-06 13:59 38.25364 58.02053 12573 ft 379 kts 318°
2026-05-06 13:59 38.27467 57.99992 13220 ft 386 kts 318°
2026-05-06 13:59 38.29590 57.97918 13959 ft 390 kts 318°
2026-05-06 14:00 38.31747 57.95808 14726 ft 395 kts 318°
2026-05-06 14:00 38.33924 57.93678 15476 ft 400 kts 318°
2026-05-06 14:00 38.36131 57.91515 16225 ft 404 kts 318°
2026-05-06 14:00 38.38372 57.89320 16993 ft 407 kts 318°
2026-05-06 14:01 38.40624 57.87113 17712 ft 412 kts 318°
2026-05-06 14:01 38.42887 57.84897 18566 ft 412 kts 317°
2026-05-06 14:01 38.45155 57.82677 19410 ft 412 kts 317°
2026-05-06 14:01 38.47410 57.80471 20165 ft 414 kts 317°
2026-05-06 14:02 38.49712 57.78218 20934 ft 415 kts 317°
2026-05-06 14:02 38.51998 57.75980 21657 ft 416 kts 317°
2026-05-06 14:02 38.54300 57.73726 22359 ft 418 kts 317°
2026-05-06 14:02 38.56582 57.71492 23035 ft 420 kts 317°
2026-05-06 14:03 38.58917 57.69204 23606 ft 424 kts 317°
2026-05-06 14:03 38.61251 57.66918 24282 ft 426 kts 317°
2026-05-06 14:03 38.63572 57.64571 24829 ft 428 kts 315°
2026-05-06 14:03 38.65841 57.62100 25273 ft 433 kts 313°
2026-05-06 14:04 38.68113 57.59518 25814 ft 435 kts 313°
2026-05-06 14:04 38.70364 57.56924 26380 ft 437 kts 312°
2026-05-06 14:04 38.72606 57.54338 26816 ft 442 kts 312°
2026-05-06 14:04 38.74911 57.51687 27316 ft 445 kts 312°
2026-05-06 14:05 38.77215 57.49048 27778 ft 448 kts 312°
2026-05-06 14:05 38.79551 57.46381 28213 ft 452 kts 312°
2026-05-06 14:05 38.81896 57.43711 28827 ft 452 kts 312°
2026-05-06 14:05 38.84240 57.41052 29587 ft 447 kts 312°
2026-05-06 14:06 38.86557 57.38428 30299 ft 443 kts 312°
2026-05-06 14:06 38.88868 57.35809 30927 ft 440 kts 312°
2026-05-06 14:06 38.91144 57.33224 31431 ft 440 kts 311°
2026-05-06 14:06 38.93428 57.30626 31942 ft 439 kts 311°
2026-05-06 14:07 38.95721 57.28015 32477 ft 438 kts 311°
2026-05-06 14:07 38.97991 57.25428 33050 ft 435 kts 311°
2026-05-06 14:07 39.00256 57.22845 33554 ft 433 kts 310°
2026-05-06 14:07 39.02512 57.20266 33772 ft 437 kts 310°
2026-05-06 14:08 39.07026 57.15098 33769 ft 435 kts 310°
2026-05-06 14:08 39.11560 57.09906 33771 ft 435 kts 310°
2026-05-06 14:09 39.16061 57.04740 33772 ft 435 kts 310°
2026-05-06 14:09 39.20570 56.99555 33777 ft 436 kts 310°
2026-05-06 14:10 39.25095 56.94341 33779 ft 437 kts 311°
2026-05-06 14:10 39.29609 56.89135 33790 ft 436 kts 310°
2026-05-06 14:11 39.34110 56.83933 33794 ft 436 kts 310°
2026-05-06 14:11 39.38644 56.78689 33791 ft 436 kts 310°
2026-05-06 14:12 39.43137 56.73512 33793 ft 435 kts 310°
2026-05-06 14:12 39.47673 56.68285 33795 ft 435 kts 310°
2026-05-06 14:13 39.52180 56.63082 33788 ft 436 kts 310°
2026-05-06 14:13 39.56692 56.57861 33801 ft 436 kts 310°
2026-05-06 14:14 39.61210 56.52622 33793 ft 435 kts 310°
2026-05-06 14:14 39.65708 56.47395 33800 ft 436 kts 310°
2026-05-06 14:15 39.70228 56.42136 33802 ft 436 kts 310°
2026-05-06 14:15 39.74731 56.36886 33804 ft 435 kts 310°
2026-05-06 14:16 39.79213 56.31648 33808 ft 434 kts 310°
2026-05-06 14:16 39.83607 56.26505 33816 ft 434 kts 310°
2026-05-06 14:17 39.88105 56.21227 33820 ft 435 kts 310°
2026-05-06 14:17 39.92558 56.15951 33828 ft 435 kts 310°
2026-05-06 14:18 39.97023 56.10635 33823 ft 435 kts 310°
2026-05-06 14:18 40.01503 56.05295 33826 ft 435 kts 309°
2026-05-06 14:19 40.05962 55.99971 33820 ft 436 kts 309°
2026-05-06 14:19 40.10422 55.94641 33828 ft 437 kts 309°
2026-05-06 14:20 40.14893 55.89290 33832 ft 435 kts 309°
2026-05-06 14:20 40.19382 55.83905 33839 ft 437 kts 309°
2026-05-06 14:21 40.23842 55.78548 33855 ft 437 kts 309°
2026-05-06 14:21 40.28318 55.73161 33861 ft 437 kts 309°
2026-05-06 14:22 40.32792 55.67806 33863 ft 437 kts 310°
2026-05-06 14:22 40.37248 55.62476 33863 ft 438 kts 310°
2026-05-06 14:23 40.41755 55.57072 33863 ft 438 kts 309°
2026-05-06 14:23 40.46243 55.51682 33862 ft 438 kts 309°
2026-05-06 14:24 40.50716 55.46295 33869 ft 438 kts 309°
2026-05-06 14:24 40.55214 55.40867 33874 ft 438 kts 309°
2026-05-06 14:25 40.59685 55.35463 33877 ft 439 kts 309°
2026-05-06 14:25 40.64173 55.30027 33872 ft 439 kts 309°
2026-05-06 14:26 40.68630 55.24617 33872 ft 439 kts 309°
2026-05-06 14:26 40.73128 55.19146 33868 ft 439 kts 309°
2026-05-06 14:27 40.77595 55.13704 33865 ft 438 kts 308°
2026-05-06 14:27 40.82075 55.08234 33862 ft 439 kts 309°
2026-05-06 14:28 40.86519 55.02800 33863 ft 438 kts 309°
2026-05-06 14:28 40.91012 54.97294 33861 ft 440 kts 308°
2026-05-06 14:29 40.95493 54.91793 33855 ft 440 kts 308°
2026-05-06 14:29 40.99962 54.86294 33857 ft 441 kts 308°
2026-05-06 14:30 41.04419 54.80802 33858 ft 440 kts 308°
2026-05-06 14:30 41.08919 54.75238 33861 ft 441 kts 308°
2026-05-06 14:31 41.13379 54.69721 33866 ft 439 kts 308°
2026-05-06 14:31 41.17817 54.64212 33870 ft 441 kts 308°
2026-05-06 14:32 41.22280 54.58662 33870 ft 441 kts 308°
2026-05-06 14:32 41.26771 54.53071 33874 ft 440 kts 308°
2026-05-06 14:33 41.31206 54.47537 33873 ft 442 kts 308°
2026-05-06 14:33 41.35684 54.41938 33893 ft 441 kts 308°
2026-05-06 14:34 41.40158 54.36330 33897 ft 442 kts 309°
2026-05-06 14:34 41.44606 54.30749 33902 ft 440 kts 308°
2026-05-06 14:35 41.49038 54.25176 33898 ft 440 kts 308°
2026-05-06 14:35 41.53498 54.19553 33896 ft 441 kts 308°
2026-05-06 14:36 41.57922 54.13972 33891 ft 440 kts 308°
2026-05-06 14:36 41.62353 54.08361 33895 ft 441 kts 308°
2026-05-06 14:37 41.66789 54.02737 33888 ft 441 kts 308°
2026-05-06 14:37 41.71239 53.97088 33885 ft 440 kts 308°
2026-05-06 14:38 41.75637 53.91491 33883 ft 438 kts 308°
2026-05-06 14:38 41.80064 53.85845 33893 ft 439 kts 308°
2026-05-06 14:39 41.84493 53.80181 33890 ft 441 kts 308°
2026-05-06 14:39 41.88918 53.74517 33890 ft 440 kts 308°
2026-05-06 14:40 41.93306 53.68888 33899 ft 441 kts 308°
2026-05-06 14:40 41.97751 53.63171 33897 ft 441 kts 308°
2026-05-06 14:41 42.02166 53.57483 33899 ft 443 kts 308°
2026-05-06 14:41 42.06614 53.51741 33899 ft 444 kts 308°
2026-05-06 14:42 42.11062 53.45988 33905 ft 444 kts 308°
2026-05-06 14:42 42.15506 53.40228 33904 ft 446 kts 308°
2026-05-06 14:43 42.19987 53.34423 33912 ft 448 kts 308°
2026-05-06 14:43 42.25005 53.29287 33915 ft 466 kts 324°
2026-05-06 14:44 42.28048 53.27668 33924 ft 477 kts 335°
2026-05-06 14:44 42.31261 53.26514 33916 ft 481 kts 339°
2026-05-06 14:45 42.41134 53.23809 33930 ft 485 kts 342°
2026-05-06 14:45 42.47778 53.22090 33934 ft 486 kts 342°
2026-05-06 14:46 42.54398 53.20314 33938 ft 488 kts 342°
2026-05-06 14:46 42.61053 53.18479 33933 ft 487 kts 342°
2026-05-06 14:47 42.67685 53.16621 33933 ft 486 kts 342°
2026-05-06 14:47 42.74324 53.14747 33931 ft 487 kts 342°
2026-05-06 14:48 42.80954 53.12868 33936 ft 488 kts 342°
2026-05-06 14:48 42.87606 53.10976 33928 ft 488 kts 342°
2026-05-06 14:49 42.94202 53.09099 33932 ft 490 kts 342°
2026-05-06 14:49 43.00891 53.07191 33927 ft 488 kts 342°
2026-05-06 14:50 43.07522 53.05295 33940 ft 489 kts 342°
2026-05-06 14:50 43.14180 53.03386 33931 ft 490 kts 342°
2026-05-06 14:51 43.20837 53.01474 33934 ft 490 kts 342°
2026-05-06 14:51 43.27526 52.99549 33933 ft 492 kts 342°
2026-05-06 14:52 43.34239 52.97611 34062 ft 493 kts 342°
2026-05-06 14:52 43.37600 52.96639 34173 ft 495 kts 343°
2026-05-06 14:52 43.40934 52.95674 34279 ft 495 kts 343°
2026-05-06 14:52 43.44315 52.94696 34383 ft 494 kts 343°
2026-05-06 14:53 43.47666 52.93726 34510 ft 493 kts 343°
2026-05-06 14:53 43.51000 52.92761 34645 ft 493 kts 343°
2026-05-06 14:53 43.54364 52.91784 34777 ft 493 kts 343°
2026-05-06 14:53 43.57689 52.90818 34921 ft 494 kts 343°
2026-05-06 14:54 43.61065 52.89834 35063 ft 493 kts 343°
2026-05-06 14:54 43.64406 52.88860 35198 ft 492 kts 343°
2026-05-06 14:54 43.67751 52.87884 35333 ft 492 kts 343°
2026-05-06 14:54 43.71086 52.86909 35470 ft 492 kts 343°
2026-05-06 14:55 43.74420 52.85934 35635 ft 491 kts 343°
2026-05-06 14:55 43.77759 52.84957 35806 ft 491 kts 343°
2026-05-06 14:55 43.81120 52.83971 35922 ft 492 kts 343°
2026-05-06 14:56 43.87759 52.82021 35922 ft 489 kts 343°
2026-05-06 14:56 43.94428 52.80055 35918 ft 490 kts 343°
2026-05-06 14:57 44.01068 52.78095 35925 ft 491 kts 343°
2026-05-06 14:57 44.07755 52.76115 35921 ft 491 kts 344°
2026-05-06 14:58 44.14421 52.74140 35920 ft 493 kts 344°
2026-05-06 14:58 44.21135 52.72146 35908 ft 492 kts 344°
2026-05-06 14:59 44.27812 52.70158 35908 ft 492 kts 344°
2026-05-06 14:59 44.31146 52.69163 36098 ft 493 kts 344°
2026-05-06 14:59 44.34518 52.68154 35728 ft 490 kts 344°
2026-05-06 14:59 44.37838 52.67164 36078 ft 490 kts 344°
2026-05-06 15:00 44.41169 52.66166 35929 ft 491 kts 344°
2026-05-06 15:00 44.47771 52.64189 35905 ft 488 kts 344°
2026-05-06 15:01 44.54396 52.62196 35906 ft 490 kts 344°
2026-05-06 15:01 44.61071 52.60185 35905 ft 489 kts 344°
2026-05-06 15:02 44.67739 52.58170 35901 ft 489 kts 345°
2026-05-06 15:02 44.74391 52.56157 35909 ft 491 kts 344°